Location: Coed Ely
(51.5661°N, 3.4150°W)
Time: 02:31:28
(UTC+00:00)

Feng Yun 1-1 Rocket - Pass Details

Date: 28 January 2021
Orbit: 830 x 933 km, 99.2° (Epoch: 28 February)

Event Time Altitude Azimuth Distance (km) Brightness Sun altitude
Rises 17:30:04 0° 143° (SE) 3,402 7.2 -5.6°
Reaches altitude 10° 17:32:28 10° 137° (SE) 2,482 6.4 -5.9°
Maximum altitude 17:37:44 49° 65° (ENE) 1,118 4.5 -6.7°
Drops below altitude 10° 17:43:11 10° 352° (N) 2,562 6.6 -7.5°
Sets 17:45:41 0° 347° (NNW) 3,521 7.4 -7.9°
